Location: Newark
(46.7636°N, 1.8358°W)
Time: 09:05:42
(UTC+00:00)

Transit 2A - All Passes

Search period start: 18 October 2019 00:00
Search period end: 28 October 2019 00:00
Orbit: 600 x 959 km, 66.7° (Epoch: 17 October)

Date Brightness Start Highest point End Pass type
(mag) Time Alt. Az. Time Alt. Az. Time Alt. Az.
18 Oct - 03:21:42 10° NNW 03:25:19 24° NE 03:28:51 10° E visible
18 Oct - 05:04:29 10° NW 05:08:44 50° WSW 05:12:55 10° SSE visible
18 Oct - 19:46:01 10° SSW 19:51:27 68° ESE 19:56:22 10° NE visible
18 Oct - 21:30:46 10° W 21:35:00 24° NW 21:38:57 10° NNE visible
19 Oct - 02:47:51 10° N 02:50:58 18° NE 02:54:00 10° E visible
19 Oct - 04:30:16 10° NW 04:34:40 77° WSW 04:39:00 10° SSE visible
19 Oct - 19:12:09 10° S 19:17:23 47° ESE 19:22:09 10° NE visible
19 Oct - 20:56:00 10° WSW 21:00:42 31° NW 21:05:02 10° NNE visible
20 Oct - 02:14:07 10° N 02:16:33 14° NNE 02:18:55 10° ENE visible
20 Oct - 03:56:09 10° NNW 04:00:33 72° NE 04:04:52 10° SE visible
20 Oct - 05:40:57 10° WNW 05:43:03 13° WSW 05:45:10 10° SW visible
20 Oct - 18:38:31 10° S 18:43:21 33° ESE 18:47:49 10° NE visible
20 Oct - 20:21:24 10° WSW 20:26:28 42° NW 20:31:04 10° NNE visible
20 Oct - 22:09:17 10° NW 22:10:50 11° NNW 22:12:22 10° N visible
21 Oct - 01:40:41 10° N 01:42:05 11° NNE 01:43:27 10° NE night (unlit)
21 Oct - 03:22:05 10° NNW 03:26:23 48° NE 03:30:35 10° SE visible
21 Oct - 05:05:57 10° WNW 05:09:09 20° WSW 05:12:22 10° SSW visible
21 Oct - 18:05:09 10° SSE 18:09:22 23° ESE 18:13:19 10° ENE visible
21 Oct - 19:46:58 10° SW 19:52:15 58° NW 19:57:03 10° NNE visible
21 Oct - 21:33:44 10° WNW 21:36:22 14° NNW 21:38:54 10° N visible
22 Oct - 02:48:06 10° NNW 02:52:10 34° NE 02:56:08 10° ESE visible
22 Oct - 04:31:23 10° NW 04:35:12 30° WSW 04:39:01 10° S visible
22 Oct - 17:32:12 10° SE 17:35:25 16° ESE 17:38:30 10° ENE visible
22 Oct - 19:12:42 10° SW 19:18:06 81° WNW 19:23:00 10° NNE visible
22 Oct - 20:58:32 10° W 21:01:57 18° NW 21:05:11 10° N visible
23 Oct - 02:14:11 10° NNW 02:17:53 25° NE 02:21:29 10° E night (unlit)
23 Oct - 03:57:02 10° NW 04:01:13 46° WSW 04:05:22 10° S visible
23 Oct - 17:00:22 10° ESE 17:01:32 11° ESE 17:02:41 10° E daylight
23 Oct - 18:38:36 10° SSW 18:44:00 73° ESE 18:48:52 10° NE visible
23 Oct - 20:23:32 10° W 20:27:35 23° NW 20:31:22 10° NNE visible
24 Oct - 01:40:20 10° N 01:43:32 19° NE 01:46:40 10° E night (unlit)
24 Oct - 03:22:48 10° NW 03:27:10 71° WSW 03:31:29 10° SSE night (unlit)
24 Oct - 18:04:42 10° SSW 18:09:55 51° ESE 18:14:40 10° NE visible
24 Oct - 19:48:44 10° WSW 19:53:16 29° NW 19:57:28 10° NNE visible
25 Oct - 01:06:35 10° N 01:09:08 15° NNE 01:11:38 10° ENE night (unlit)
25 Oct - 02:48:40 10° NNW 02:53:04 78° NE 02:57:25 10° SE night (unlit)
25 Oct - 04:33:47 10° W 04:35:31 12° WSW 04:37:15 10° SW night (unlit)
25 Oct - 17:31:00 10° S 17:35:52 35° ESE 17:40:21 10° NE visible
25 Oct - 19:14:06 10° WSW 19:19:01 39° NW 19:23:31 10° NNE visible
25 Oct - 21:02:26 10° NW 21:03:27 11° NNW 21:04:28 10° NNW visible
26 Oct - 00:33:04 10° N 00:34:41 12° NNE 00:36:16 10° NE night (unlit)
26 Oct - 02:14:36 10° NNW 02:18:54 52° NE 02:23:09 10° SE night (unlit)
26 Oct - 03:58:36 10° WNW 04:01:38 19° WSW 04:04:40 10° SSW night (unlit)
26 Oct - 16:57:35 10° SSE 17:01:53 25° ESE 17:05:53 10° ENE daylight
26 Oct - 18:39:38 10° SW 18:44:49 54° NW 18:49:32 10° NNE visible
26 Oct - 20:26:38 10° WNW 20:28:58 13° NNW 20:31:14 10° N visible
27 Oct - 01:40:36 10° NNW 01:44:42 36° NE 01:48:43 10° ESE night (unlit)
27 Oct - 03:23:58 10° NW 03:27:41 28° WSW 03:31:24 10° S night (unlit)
27 Oct - 16:24:31 10° SSE 16:27:56 17° ESE 16:31:10 10° ENE daylight
27 Oct - 18:05:19 10° SW 18:10:39 75° NW 18:15:29 10° NNE visible
27 Oct - 19:51:22 10° WNW 19:54:33 17° NW 19:57:35 10° N visible
